This is the latest recevied weather packets stored in our database for station/object SQ5RTW-1. If no packets are shown the sender has not sent any weather packets the latest 10 day(s).
| Time | Temp. | Humidity | Pressure | Rain* | Wind** | Luminosity | Snow |
|---|---|---|---|---|---|---|---|
| 1777675362 | 13.33° C | 61% | 1027.3 hPa | - | - | - | - |
| 1777675214 | 13.89° C | 59% | 1027.3 hPa | - | - | - | - |
| 1777674696 | 13.89° C | 56% | 1027.2 hPa | - | - | - | - |
| 1777674668 | 13.33° C | 55% | 1027.2 hPa | - | - | - | - |
| 1777674651 | 15° C | 56% | 1027.3 hPa | - | - | - | - |
| 1777674622 | 14.44° C | 58% | 1027.3 hPa | - | - | - | - |
| 1777674606 | 15° C | 58% | 1027.2 hPa | - | - | - | - |
| 1777674554 | 14.44° C | 56% | 1027.3 hPa | - | - | - | - |
| 1777674422 | 14.44° C | 56% | 1027.2 hPa | - | - | - | - |
| 1777674405 | 15° C | 56% | 1027.3 hPa | - | - | - | - |
| 1777674386 | 14.44° C | 56% | 1027.3 hPa | - | - | - | - |
| 1777674381 | 15° C | 57% | 1027.3 hPa | - | - | - | - |
| 1777674330 | 14.44° C | 56% | 1027.3 hPa | - | - | - | - |
| 1777674313 | 15° C | 58% | 1027.3 hPa | - | - | - | - |
| 1777674288 | 12.78° C | 57% | 1027.3 hPa | - | - | - | - |
| 1777674114 | 13.89° C | 59% | 1027.4 hPa | - | - | - | - |
| 1777674044 | 12.78° C | 58% | 1027.4 hPa | - | - | - | - |
| 1777674027 | 14.44° C | 59% | 1027.4 hPa | - | - | - | - |
| 1777673998 | 13.33° C | 59% | 1027.4 hPa | - | - | - | - |
| 1777673981 | 14.44° C | 60% | 1027.4 hPa | - | - | - | - |
| 1777673646 | 13.33° C | 58% | 1027.4 hPa | - | - | - | - |
| 1777673630 | 14.44° C | 58% | 1027.4 hPa | - | - | - | - |
| 1777673581 | 13.33° C | 58% | 1027.4 hPa | - | - | - | - |
| 1777673464 | 13.33° C | 58% | 1027.5 hPa | - | - | - | - |
| 1777670674 | 12.78° C | 57% | 1027.4 hPa | - | - | - | - |
* Rain since midnight (hover to see other rain measurements)
** Current wind speed in m/s (hover to see current wind gust speed)